User: anonymous   Login
Location: Unspecified
(0.0000°N, 0.0000°E)
Time: 02:46:00
(UTC+00:00)
Language:

Cosmos 1782 - Orbit

View from above orbital plane
View from above orbital plane
View from above satellite
View from above satellite

Ground track
Ground track

The orbit data is extracted from the following two-line orbital elements,

1 16986U 86074A   18020.55140144  .00000501  00000-0  31715-4 0  9997
2 16986  82.5058 269.7406 0010378 330.0306  30.0326 15.06767796703589
Epoch (UTC): 20 January 2018 13:14:01
Eccentricity: 0.0010378
inclination: 82.5058°
perigee height: 539 km
apogee height: 553 km
right ascension of ascending node: 269.7406°
argument of perigee: 330.0306°
revolutions per day: 15.06767796
mean anomaly at epoch: 30.0326°
orbit number at epoch: 70358

The dashed part of the orbit path shows where the satellite is in the earth's shadow,  

DLR